owner,sensor,date,latitude,longitude,sea_surface_height_above_sea_level,qcFlag 
COMPS,ioos:station:USF.COMPS:ARP:1,2015-06-01T00:00:00Z,28.4330,-82.6670,-0.453,1111122 
COMPS,ioos:station:USF.COMPS:ARP:1,2015-06-01T00:06:00Z,28.4330,-82.6670,-0.458,1111122 
COMPS,ioos:station:USF.COMPS:ARP:1,2015-06-01T00:12:00Z,28.4330,-82.6670,-0.463,1111122 
COMPS,ioos:station:USF.COMPS:ARP:1,2015-06-01T00:18:00Z,28.4330,-82.6670,-0.468,1111122 
COMPS,ioos:station:USF.COMPS:ARP:1,2015-06-01T00:24:00Z,28.4330,-82.6670,-0.472,1111122 
COMPS,ioos:station:USF.COMPS:ARP:1,2015-06-01T00:30:00Z,28.4330,-82.6670,-0.474,1111122 
COMPS,ioos:station:USF.COMPS:ARP:1,2015-06-01T00:36:00Z,28.4330,-82.6670,-0.474,1111122 
COMPS,ioos:station:USF.COMPS:ARP:1,2015-06-01T00:42:00Z,28.4330,-82.6670,-0.472,1111122 
COMPS,ioos:station:USF.COMPS:ARP:1,2015-06-01T00:48:00Z,28.4330,-82.6670,-0.469,1111122 
COMPS,ioos:station:USF.COMPS:ARP:1,2015-06-01T00:54:00Z,28.4330,-82.6670,-0.465,1111122 
COMPS,ioos:station:USF.COMPS:ARP:1,2015-06-01T01:00:00Z,28.4330,-82.6670,-0.462,1111122 
COMPS,ioos:station:USF.COMPS:ARP:1,2015-06-01T01:06:00Z,28.4330,-82.6670,-0.455,1111122 
COMPS,ioos:station:USF.COMPS:ARP:1,2015-06-01T01:12:00Z,28.4330,-82.6670,-0.446,1111122 
COMPS,ioos:station:USF.COMPS:ARP:1,2015-06-01T01:18:00Z,28.4330,-82.6670,-0.437,1111122 
COMPS,ioos:station:USF.COMPS:ARP:1,2015-06-01T01:24:00Z,28.4330,-82.6670,-0.43,1111122 
COMPS,ioos:station:USF.COMPS:ARP:1,2015-06-01T01:30:00Z,28.4330,-82.6670,-0.424,1111122 
COMPS,ioos:station:USF.COMPS:ARP:1,2015-06-01T01:36:00Z,28.4330,-82.6670,-0.414,1111122 
COMPS,ioos:station:USF.COMPS:ARP:1,2015-06-01T01:42:00Z,28.4330,-82.6670,-0.402,1111122 
COMPS,ioos:station:USF.COMPS:ARP:1,2015-06-01T01:48:00Z,28.4330,-82.6670,-0.399,1111122 
COMPS,ioos:station:USF.COMPS:ARP:1,2015-06-01T01:54:00Z,28.4330,-82.6670,-0.396,1111122 
COMPS,ioos:station:USF.COMPS:ARP:1,2015-06-01T02:00:00Z,28.4330,-82.6670,-0.384,1111122 
COMPS,ioos:station:USF.COMPS:ARP:1,2015-06-01T02:06:00Z,28.4330,-82.6670,-0.371,1111122 
COMPS,ioos:station:USF.COMPS:ARP:1,2015-06-01T02:12:00Z,28.4330,-82.6670,-0.364,1111122 
COMPS,ioos:station:USF.COMPS:ARP:1,2015-06-01T02:18:00Z,28.4330,-82.6670,-0.35,1111122 
COMPS,ioos:station:USF.COMPS:ARP:1,2015-06-01T02:24:00Z,28.4330,-82.6670,-0.329,1111122 
COMPS,ioos:station:USF.COMPS:ARP:1,2015-06-01T02:30:00Z,28.4330,-82.6670,-0.308,1111122 
COMPS,ioos:station:USF.COMPS:ARP:1,2015-06-01T02:36:00Z,28.4330,-82.6670,-0.286,1111122 
COMPS,ioos:station:USF.COMPS:ARP:1,2015-06-01T02:42:00Z,28.4330,-82.6670,-0.262,1111122 
COMPS,ioos:station:USF.COMPS:ARP:1,2015-06-01T02:48:00Z,28.4330,-82.6670,-0.238,1111122 
COMPS,ioos:station:USF.COMPS:ARP:1,2015-06-01T02:54:00Z,28.4330,-82.6670,-0.213,1111122 
COMPS,ioos:station:USF.COMPS:ARP:1,2015-06-01T03:00:00Z,28.4330,-82.6670,-0.187,1111122 
COMPS,ioos:station:USF.COMPS:ARP:1,2015-06-01T03:06:00Z,28.4330,-82.6670,-0.158,1111122 
COMPS,ioos:station:USF.COMPS:ARP:1,2015-06-01T03:12:00Z,28.4330,-82.6670,-0.129,1111122 
COMPS,ioos:station:USF.COMPS:ARP:1,2015-06-01T03:18:00Z,28.4330,-82.6670,-0.102,1111122 
COMPS,ioos:station:USF.COMPS:ARP:1,2015-06-01T03:24:00Z,28.4330,-82.6670,-0.073,1111122 
COMPS,ioos:station:USF.COMPS:ARP:1,2015-06-01T03:30:00Z,28.4330,-82.6670,-0.043,1111122 
COMPS,ioos:station:USF.COMPS:ARP:1,2015-06-01T03:36:00Z,28.4330,-82.6670,-0.015,1111122 
COMPS,ioos:station:USF.COMPS:ARP:1,2015-06-01T03:42:00Z,28.4330,-82.6670,0.012,1111122 
COMPS,ioos:station:USF.COMPS:ARP:1,2015-06-01T03:48:00Z,28.4330,-82.6670,0.041,1111122 
COMPS,ioos:station:USF.COMPS:ARP:1,2015-06-01T03:54:00Z,28.4330,-82.6670,0.068,1111122 
COMPS,ioos:station:USF.COMPS:ARP:1,2015-06-01T04:00:00Z,28.4330,-82.6670,0.092,1111122 
COMPS,ioos:station:USF.COMPS:ARP:1,2015-06-01T04:06:00Z,28.4330,-82.6670,0.114,1111122 
COMPS,ioos:station:USF.COMPS:ARP:1,2015-06-01T04:12:00Z,28.4330,-82.6670,0.137,1111122 
COMPS,ioos:station:USF.COMPS:ARP:1,2015-06-01T04:18:00Z,28.4330,-82.6670,0.16,1111122 
COMPS,ioos:station:USF.COMPS:ARP:1,2015-06-01T04:24:00Z,28.4330,-82.6670,0.179,1111122 
COMPS,ioos:station:USF.COMPS:ARP:1,2015-06-01T04:30:00Z,28.4330,-82.6670,0.197,1111122 
COMPS,ioos:station:USF.COMPS:ARP:1,2015-06-01T04:36:00Z,28.4330,-82.6670,0.217,1111122 
COMPS,ioos:station:USF.COMPS:ARP:1,2015-06-01T04:42:00Z,28.4330,-82.6670,0.235,1111122 
COMPS,ioos:station:USF.COMPS:ARP:1,2015-06-01T04:48:00Z,28.4330,-82.6670,0.252,1111122 
COMPS,ioos:station:USF.COMPS:ARP:1,2015-06-01T04:54:00Z,28.4330,-82.6670,0.271,1111122 
COMPS,ioos:station:USF.COMPS:ARP:1,2015-06-01T05:00:00Z,28.4330,-82.6670,0.286,1111122 
COMPS,ioos:station:USF.COMPS:ARP:1,2015-06-01T05:06:00Z,28.4330,-82.6670,0.299,1111122 
COMPS,ioos:station:USF.COMPS:ARP:1,2015-06-01T05:12:00Z,28.4330,-82.6670,0.315,1111122 
COMPS,ioos:station:USF.COMPS:ARP:1,2015-06-01T05:18:00Z,28.4330,-82.6670,0.329,1111122 
COMPS,ioos:station:USF.COMPS:ARP:1,2015-06-01T05:24:00Z,28.4330,-82.6670,0.338,1111122 
COMPS,ioos:station:USF.COMPS:ARP:1,2015-06-01T05:30:00Z,28.4330,-82.6670,0.348,1111122 
COMPS,ioos:station:USF.COMPS:ARP:1,2015-06-01T05:36:00Z,28.4330,-82.6670,0.354,1111122 
COMPS,ioos:station:USF.COMPS:ARP:1,2015-06-01T05:42:00Z,28.4330,-82.6670,0.358,1111122 
COMPS,ioos:station:USF.COMPS:ARP:1,2015-06-01T05:48:00Z,28.4330,-82.6670,0.36,1111122 
COMPS,ioos:station:USF.COMPS:ARP:1,2015-06-01T05:54:00Z,28.4330,-82.6670,0.361,1111122 
COMPS,ioos:station:USF.COMPS:ARP:1,2015-06-01T06:00:00Z,28.4330,-82.6670,0.362,1111122 
COMPS,ioos:station:USF.COMPS:ARP:1,2015-06-01T06:06:00Z,28.4330,-82.6670,0.361,1111122 
COMPS,ioos:station:USF.COMPS:ARP:1,2015-06-01T06:12:00Z,28.4330,-82.6670,0.356,1111122 
COMPS,ioos:station:USF.COMPS:ARP:1,2015-06-01T06:18:00Z,28.4330,-82.6670,0.35,1111122 
COMPS,ioos:station:USF.COMPS:ARP:1,2015-06-01T06:24:00Z,28.4330,-82.6670,0.346,1111122 
COMPS,ioos:station:USF.COMPS:ARP:1,2015-06-01T06:30:00Z,28.4330,-82.6670,0.333,1111122 
COMPS,ioos:station:USF.COMPS:ARP:1,2015-06-01T06:36:00Z,28.4330,-82.6670,0.321,1111122 
COMPS,ioos:station:USF.COMPS:ARP:1,2015-06-01T06:42:00Z,28.4330,-82.6670,0.304,1111122 
COMPS,ioos:station:USF.COMPS:ARP:1,2015-06-01T06:48:00Z,28.4330,-82.6670,0.279,1111122 
COMPS,ioos:station:USF.COMPS:ARP:1,2015-06-01T06:54:00Z,28.4330,-82.6670,0.259,1111122 
COMPS,ioos:station:USF.COMPS:ARP:1,2015-06-01T07:00:00Z,28.4330,-82.6670,0.24,1111122 
COMPS,ioos:station:USF.COMPS:ARP:1,2015-06-01T07:06:00Z,28.4330,-82.6670,0.218,1111122 
COMPS,ioos:station:USF.COMPS:ARP:1,2015-06-01T07:12:00Z,28.4330,-82.6670,0.202,1111122 
COMPS,ioos:station:USF.COMPS:ARP:1,2015-06-01T07:18:00Z,28.4330,-82.6670,0.187,1111122 
COMPS,ioos:station:USF.COMPS:ARP:1,2015-06-01T07:24:00Z,28.4330,-82.6670,0.172,1111122 
COMPS,ioos:station:USF.COMPS:ARP:1,2015-06-01T07:30:00Z,28.4330,-82.6670,0.157,1111122 
COMPS,ioos:station:USF.COMPS:ARP:1,2015-06-01T07:36:00Z,28.4330,-82.6670,0.144,1111122 
COMPS,ioos:station:USF.COMPS:ARP:1,2015-06-01T07:42:00Z,28.4330,-82.6670,0.129,1111122 
COMPS,ioos:station:USF.COMPS:ARP:1,2015-06-01T07:48:00Z,28.4330,-82.6670,0.114,1111122 
COMPS,ioos:station:USF.COMPS:ARP:1,2015-06-01T07:54:00Z,28.4330,-82.6670,0.1,1111122 
COMPS,ioos:station:USF.COMPS:ARP:1,2015-06-01T08:00:00Z,28.4330,-82.6670,0.086,1111122 
COMPS,ioos:station:USF.COMPS:ARP:1,2015-06-01T08:06:00Z,28.4330,-82.6670,0.074,1111122 
COMPS,ioos:station:USF.COMPS:ARP:1,2015-06-01T08:12:00Z,28.4330,-82.6670,0.058,1111122 
COMPS,ioos:station:USF.COMPS:ARP:1,2015-06-01T08:18:00Z,28.4330,-82.6670,0.044,1111122 
COMPS,ioos:station:USF.COMPS:ARP:1,2015-06-01T08:24:00Z,28.4330,-82.6670,0.03,1111122 
COMPS,ioos:station:USF.COMPS:ARP:1,2015-06-01T08:30:00Z,28.4330,-82.6670,0.015,1111122 
COMPS,ioos:station:USF.COMPS:ARP:1,2015-06-01T08:36:00Z,28.4330,-82.6670,0.001,1111122 
COMPS,ioos:station:USF.COMPS:ARP:1,2015-06-01T08:42:00Z,28.4330,-82.6670,-0.012,1111122 
COMPS,ioos:station:USF.COMPS:ARP:1,2015-06-01T08:48:00Z,28.4330,-82.6670,-0.025,1111122 
COMPS,ioos:station:USF.COMPS:ARP:1,2015-06-01T08:54:00Z,28.4330,-82.6670,-0.039,1111122 
COMPS,ioos:station:USF.COMPS:ARP:1,2015-06-01T09:00:00Z,28.4330,-82.6670,-0.053,1111122 
COMPS,ioos:station:USF.COMPS:ARP:1,2015-06-01T09:06:00Z,28.4330,-82.6670,-0.068,1111122 
COMPS,ioos:station:USF.COMPS:ARP:1,2015-06-01T09:12:00Z,28.4330,-82.6670,-0.082,1111122 
COMPS,ioos:station:USF.COMPS:ARP:1,2015-06-01T09:18:00Z,28.4330,-82.6670,-0.096,1111122 
COMPS,ioos:station:USF.COMPS:ARP:1,2015-06-01T09:24:00Z,28.4330,-82.6670,-0.109,1111122 
COMPS,ioos:station:USF.COMPS:ARP:1,2015-06-01T09:30:00Z,28.4330,-82.6670,-0.121,1111122 
COMPS,ioos:station:USF.COMPS:ARP:1,2015-06-01T09:36:00Z,28.4330,-82.6670,-0.132,1111122 
COMPS,ioos:station:USF.COMPS:ARP:1,2015-06-01T09:48:00Z,28.4330,-82.6670,-0.155,1111122 
COMPS,ioos:station:USF.COMPS:ARP:1,2015-06-01T09:54:00Z,28.4330,-82.6670,-0.165,1111122 
COMPS,ioos:station:USF.COMPS:ARP:1,2015-06-01T10:00:00Z,28.4330,-82.6670,-0.176,1111122 
COMPS,ioos:station:USF.COMPS:ARP:1,2015-06-01T10:06:00Z,28.4330,-82.6670,-0.186,1111122 
COMPS,ioos:station:USF.COMPS:ARP:1,2015-06-01T10:12:00Z,28.4330,-82.6670,-0.196,1111122 
COMPS,ioos:station:USF.COMPS:ARP:1,2015-06-01T10:18:00Z,28.4330,-82.6670,-0.206,1111122 
COMPS,ioos:station:USF.COMPS:ARP:1,2015-06-01T10:30:00Z,28.4330,-82.6670,-0.224,1111122 
COMPS,ioos:station:USF.COMPS:ARP:1,2015-06-01T10:36:00Z,28.4330,-82.6670,-0.232,1111122 
COMPS,ioos:station:USF.COMPS:ARP:1,2015-06-01T10:42:00Z,28.4330,-82.6670,-0.239,1111122 
COMPS,ioos:station:USF.COMPS:ARP:1,2015-06-01T10:48:00Z,28.4330,-82.6670,-0.244,1111122 
COMPS,ioos:station:USF.COMPS:ARP:1,2015-06-01T10:54:00Z,28.4330,-82.6670,-0.247,1111122 
COMPS,ioos:station:USF.COMPS:ARP:1,2015-06-01T11:00:00Z,28.4330,-82.6670,-0.247,1111122 
COMPS,ioos:station:USF.COMPS:ARP:1,2015-06-01T11:06:00Z,28.4330,-82.6670,-0.254,1111122 
COMPS,ioos:station:USF.COMPS:ARP:1,2015-06-01T11:12:00Z,28.4330,-82.6670,-0.251,1111122 
COMPS,ioos:station:USF.COMPS:ARP:1,2015-06-01T11:18:00Z,28.4330,-82.6670,-0.249,1111122 
COMPS,ioos:station:USF.COMPS:ARP:1,2015-06-01T11:24:00Z,28.4330,-82.6670,-0.251,1111122 
COMPS,ioos:station:USF.COMPS:ARP:1,2015-06-01T11:30:00Z,28.4330,-82.6670,-0.25,1111122 
COMPS,ioos:station:USF.COMPS:ARP:1,2015-06-01T11:36:00Z,28.4330,-82.6670,-0.243,1111122 
COMPS,ioos:station:USF.COMPS:ARP:1,2015-06-01T11:42:00Z,28.4330,-82.6670,-0.242,1111122 
COMPS,ioos:station:USF.COMPS:ARP:1,2015-06-01T11:48:00Z,28.4330,-82.6670,-0.235,1111122 
COMPS,ioos:station:USF.COMPS:ARP:1,2015-06-01T12:00:00Z,28.4330,-82.6670,-0.22,1111122 
COMPS,ioos:station:USF.COMPS:ARP:1,2015-06-01T12:06:00Z,28.4330,-82.6670,-0.209,1111122 
COMPS,ioos:station:USF.COMPS:ARP:1,2015-06-01T12:12:00Z,28.4330,-82.6670,-0.201,1111122 
COMPS,ioos:station:USF.COMPS:ARP:1,2015-06-01T12:18:00Z,28.4330,-82.6670,-0.19,1111122 
COMPS,ioos:station:USF.COMPS:ARP:1,2015-06-01T12:24:00Z,28.4330,-82.6670,-0.18,1111122 
COMPS,ioos:station:USF.COMPS:ARP:1,2015-06-01T12:30:00Z,28.4330,-82.6670,-0.167,1111122 
COMPS,ioos:station:USF.COMPS:ARP:1,2015-06-01T12:36:00Z,28.4330,-82.6670,-0.155,1111122 
COMPS,ioos:station:USF.COMPS:ARP:1,2015-06-01T12:42:00Z,28.4330,-82.6670,-0.139,1111122 
COMPS,ioos:station:USF.COMPS:ARP:1,2015-06-01T12:48:00Z,28.4330,-82.6670,-0.127,1111122 
COMPS,ioos:station:USF.COMPS:ARP:1,2015-06-01T12:54:00Z,28.4330,-82.6670,-0.113,1111122 
COMPS,ioos:station:USF.COMPS:ARP:1,2015-06-01T13:00:00Z,28.4330,-82.6670,-0.095,1111122 
COMPS,ioos:station:USF.COMPS:ARP:1,2015-06-01T13:06:00Z,28.4330,-82.6670,-0.079,1111122 
COMPS,ioos:station:USF.COMPS:ARP:1,2015-06-01T13:12:00Z,28.4330,-82.6670,-0.061,1111122 
COMPS,ioos:station:USF.COMPS:ARP:1,2015-06-01T13:18:00Z,28.4330,-82.6670,-0.044,1111122 
COMPS,ioos:station:USF.COMPS:ARP:1,2015-06-01T13:24:00Z,28.4330,-82.6670,-0.024,1111122 
COMPS,ioos:station:USF.COMPS:ARP:1,2015-06-01T13:30:00Z,28.4330,-82.6670,-0.004,1111122 
COMPS,ioos:station:USF.COMPS:ARP:1,2015-06-01T13:36:00Z,28.4330,-82.6670,0.016,1111122 
COMPS,ioos:station:USF.COMPS:ARP:1,2015-06-01T13:42:00Z,28.4330,-82.6670,0.039,1111122 
COMPS,ioos:station:USF.COMPS:ARP:1,2015-06-01T13:48:00Z,28.4330,-82.6670,0.067,1111122 
COMPS,ioos:station:USF.COMPS:ARP:1,2015-06-01T13:54:00Z,28.4330,-82.6670,0.09,1111122 
COMPS,ioos:station:USF.COMPS:ARP:1,2015-06-01T14:00:00Z,28.4330,-82.6670,0.114,1111122 
COMPS,ioos:station:USF.COMPS:ARP:1,2015-06-01T14:06:00Z,28.4330,-82.6670,0.14,1111122 
COMPS,ioos:station:USF.COMPS:ARP:1,2015-06-01T14:12:00Z,28.4330,-82.6670,0.169,1111122 
COMPS,ioos:station:USF.COMPS:ARP:1,2015-06-01T14:18:00Z,28.4330,-82.6670,0.194,1111122 
COMPS,ioos:station:USF.COMPS:ARP:1,2015-06-01T14:24:00Z,28.4330,-82.6670,0.22,1111122 
COMPS,ioos:station:USF.COMPS:ARP:1,2015-06-01T14:30:00Z,28.4330,-82.6670,0.244,1111122 
COMPS,ioos:station:USF.COMPS:ARP:1,2015-06-01T14:36:00Z,28.4330,-82.6670,0.245,1111122 
COMPS,ioos:station:USF.COMPS:ARP:1,2015-06-01T14:42:00Z,28.4330,-82.6670,0.295,1111122 
COMPS,ioos:station:USF.COMPS:ARP:1,2015-06-01T14:48:00Z,28.4330,-82.6670,0.321,1111122 
COMPS,ioos:station:USF.COMPS:ARP:1,2015-06-01T14:54:00Z,28.4330,-82.6670,0.347,1111122 
COMPS,ioos:station:USF.COMPS:ARP:1,2015-06-01T15:00:00Z,28.4330,-82.6670,0.368,1111122 
COMPS,ioos:station:USF.COMPS:ARP:1,2015-06-01T15:06:00Z,28.4330,-82.6670,0.388,1111122 
COMPS,ioos:station:USF.COMPS:ARP:1,2015-06-01T15:12:00Z,28.4330,-82.6670,0.412,1111122 
COMPS,ioos:station:USF.COMPS:ARP:1,2015-06-01T15:18:00Z,28.4330,-82.6670,0.438,1111122 
COMPS,ioos:station:USF.COMPS:ARP:1,2015-06-01T15:24:00Z,28.4330,-82.6670,0.46,1111122 
COMPS,ioos:station:USF.COMPS:ARP:1,2015-06-01T15:30:00Z,28.4330,-82.6670,0.479,1111122 
COMPS,ioos:station:USF.COMPS:ARP:1,2015-06-01T15:36:00Z,28.4330,-82.6670,0.497,1111122 
COMPS,ioos:station:USF.COMPS:ARP:1,2015-06-01T15:42:00Z,28.4330,-82.6670,0.515,1111122 
COMPS,ioos:station:USF.COMPS:ARP:1,2015-06-01T15:48:00Z,28.4330,-82.6670,0.534,1111122 
COMPS,ioos:station:USF.COMPS:ARP:1,2015-06-01T15:54:00Z,28.4330,-82.6670,0.556,1111122 
COMPS,ioos:station:USF.COMPS:ARP:1,2015-06-01T16:00:00Z,28.4330,-82.6670,0.571,1111122 
COMPS,ioos:station:USF.COMPS:ARP:1,2015-06-01T16:06:00Z,28.4330,-82.6670,0.587,1111122 
COMPS,ioos:station:USF.COMPS:ARP:1,2015-06-01T16:12:00Z,28.4330,-82.6670,0.601,1111122 
COMPS,ioos:station:USF.COMPS:ARP:1,2015-06-01T16:18:00Z,28.4330,-82.6670,0.613,1111122 
COMPS,ioos:station:USF.COMPS:ARP:1,2015-06-01T16:24:00Z,28.4330,-82.6670,0.624,1111122 
COMPS,ioos:station:USF.COMPS:ARP:1,2015-06-01T16:30:00Z,28.4330,-82.6670,0.633,1111122 
COMPS,ioos:station:USF.COMPS:ARP:1,2015-06-01T16:36:00Z,28.4330,-82.6670,0.638,1111122 
COMPS,ioos:station:USF.COMPS:ARP:1,2015-06-01T16:42:00Z,28.4330,-82.6670,0.647,1111122 
COMPS,ioos:station:USF.COMPS:ARP:1,2015-06-01T16:48:00Z,28.4330,-82.6670,0.648,1111122 
COMPS,ioos:station:USF.COMPS:ARP:1,2015-06-01T17:00:00Z,28.4330,-82.6670,0.64,1111122 
COMPS,ioos:station:USF.COMPS:ARP:1,2015-06-01T17:06:00Z,28.4330,-82.6670,0.628,1111122 
COMPS,ioos:station:USF.COMPS:ARP:1,2015-06-01T17:12:00Z,28.4330,-82.6670,0.615,1111122 
COMPS,ioos:station:USF.COMPS:ARP:1,2015-06-01T17:18:00Z,28.4330,-82.6670,0.608,1111122 
COMPS,ioos:station:USF.COMPS:ARP:1,2015-06-01T17:30:00Z,28.4330,-82.6670,0.586,1111122 
COMPS,ioos:station:USF.COMPS:ARP:1,2015-06-01T17:42:00Z,28.4330,-82.6670,0.568,1111122 
COMPS,ioos:station:USF.COMPS:ARP:1,2015-06-01T17:48:00Z,28.4330,-82.6670,0.553,1111122 
COMPS,ioos:station:USF.COMPS:ARP:1,2015-06-01T18:00:00Z,28.4330,-82.6670,0.526,1111122 
COMPS,ioos:station:USF.COMPS:ARP:1,2015-06-01T18:06:00Z,28.4330,-82.6670,0.514,1111122 
COMPS,ioos:station:USF.COMPS:ARP:1,2015-06-01T18:12:00Z,28.4330,-82.6670,0.497,1111122 
COMPS,ioos:station:USF.COMPS:ARP:1,2015-06-01T18:18:00Z,28.4330,-82.6670,0.486,1111122 
COMPS,ioos:station:USF.COMPS:ARP:1,2015-06-01T18:24:00Z,28.4330,-82.6670,0.474,1111122 
COMPS,ioos:station:USF.COMPS:ARP:1,2015-06-01T18:30:00Z,28.4330,-82.6670,0.456,1111122 
COMPS,ioos:station:USF.COMPS:ARP:1,2015-06-01T18:36:00Z,28.4330,-82.6670,0.439,1111122 
COMPS,ioos:station:USF.COMPS:ARP:1,2015-06-01T18:42:00Z,28.4330,-82.6670,0.421,1111122 
COMPS,ioos:station:USF.COMPS:ARP:1,2015-06-01T18:48:00Z,28.4330,-82.6670,0.401,1111122 
COMPS,ioos:station:USF.COMPS:ARP:1,2015-06-01T18:54:00Z,28.4330,-82.6670,0.384,1111122 
COMPS,ioos:station:USF.COMPS:ARP:1,2015-06-01T19:00:00Z,28.4330,-82.6670,0.37,1111122 
COMPS,ioos:station:USF.COMPS:ARP:1,2015-06-01T19:12:00Z,28.4330,-82.6670,0.341,1111122 
COMPS,ioos:station:USF.COMPS:ARP:1,2015-06-01T19:18:00Z,28.4330,-82.6670,0.324,1111122 
COMPS,ioos:station:USF.COMPS:ARP:1,2015-06-01T19:24:00Z,28.4330,-82.6670,0.305,1111122 
COMPS,ioos:station:USF.COMPS:ARP:1,2015-06-01T19:30:00Z,28.4330,-82.6670,0.286,1111122 
COMPS,ioos:station:USF.COMPS:ARP:1,2015-06-01T19:42:00Z,28.4330,-82.6670,0.252,1111122 
COMPS,ioos:station:USF.COMPS:ARP:1,2015-06-01T19:48:00Z,28.4330,-82.6670,0.233,1111122 
COMPS,ioos:station:USF.COMPS:ARP:1,2015-06-01T19:54:00Z,28.4330,-82.6670,0.215,1111122 
COMPS,ioos:station:USF.COMPS:ARP:1,2015-06-01T20:00:00Z,28.4330,-82.6670,0.199,1111122 
COMPS,ioos:station:USF.COMPS:ARP:1,2015-06-01T20:12:00Z,28.4330,-82.6670,0.161,1111122 
COMPS,ioos:station:USF.COMPS:ARP:1,2015-06-01T20:18:00Z,28.4330,-82.6670,0.14,1111122 
COMPS,ioos:station:USF.COMPS:ARP:1,2015-06-01T20:24:00Z,28.4330,-82.6670,0.121,1111122 
COMPS,ioos:station:USF.COMPS:ARP:1,2015-06-01T20:30:00Z,28.4330,-82.6670,0.101,1111122 
COMPS,ioos:station:USF.COMPS:ARP:1,2015-06-01T20:36:00Z,28.4330,-82.6670,0.084,1111122 
COMPS,ioos:station:USF.COMPS:ARP:1,2015-06-01T20:42:00Z,28.4330,-82.6670,0.066,1111122 
COMPS,ioos:station:USF.COMPS:ARP:1,2015-06-01T20:48:00Z,28.4330,-82.6670,0.046,1111122 
COMPS,ioos:station:USF.COMPS:ARP:1,2015-06-01T20:54:00Z,28.4330,-82.6670,0.026,1111122 
COMPS,ioos:station:USF.COMPS:ARP:1,2015-06-01T21:00:00Z,28.4330,-82.6670,0.006,1111122 
COMPS,ioos:station:USF.COMPS:ARP:1,2015-06-01T21:06:00Z,28.4330,-82.6670,-0.011,1111122 
COMPS,ioos:station:USF.COMPS:ARP:1,2015-06-01T21:12:00Z,28.4330,-82.6670,-0.027,1111122 
COMPS,ioos:station:USF.COMPS:ARP:1,2015-06-01T21:18:00Z,28.4330,-82.6670,-0.047,1111122 
COMPS,ioos:station:USF.COMPS:ARP:1,2015-06-01T21:24:00Z,28.4330,-82.6670,-0.066,1111122 
COMPS,ioos:station:USF.COMPS:ARP:1,2015-06-01T21:30:00Z,28.4330,-82.6670,-0.084,1111122 
COMPS,ioos:station:USF.COMPS:ARP:1,2015-06-01T21:36:00Z,28.4330,-82.6670,-0.102,1111122 
COMPS,ioos:station:USF.COMPS:ARP:1,2015-06-01T21:42:00Z,28.4330,-82.6670,-0.116,1111122 
COMPS,ioos:station:USF.COMPS:ARP:1,2015-06-01T21:48:00Z,28.4330,-82.6670,-0.132,1111122 
COMPS,ioos:station:USF.COMPS:ARP:1,2015-06-01T21:54:00Z,28.4330,-82.6670,-0.147,1111122 
COMPS,ioos:station:USF.COMPS:ARP:1,2015-06-01T22:00:00Z,28.4330,-82.6670,-0.161,1111122 
COMPS,ioos:station:USF.COMPS:ARP:1,2015-06-01T22:06:00Z,28.4330,-82.6670,-0.176,1111122 
COMPS,ioos:station:USF.COMPS:ARP:1,2015-06-01T22:12:00Z,28.4330,-82.6670,-0.19,1111122 
COMPS,ioos:station:USF.COMPS:ARP:1,2015-06-01T22:18:00Z,28.4330,-82.6670,-0.203,1111122 
COMPS,ioos:station:USF.COMPS:ARP:1,2015-06-01T22:24:00Z,28.4330,-82.6670,-0.219,1111122 
COMPS,ioos:station:USF.COMPS:ARP:1,2015-06-01T22:30:00Z,28.4330,-82.6670,-0.233,1111122 
COMPS,ioos:station:USF.COMPS:ARP:1,2015-06-01T22:36:00Z,28.4330,-82.6670,-0.247,1111122 
COMPS,ioos:station:USF.COMPS:ARP:1,2015-06-01T22:42:00Z,28.4330,-82.6670,-0.26,1111122 
COMPS,ioos:station:USF.COMPS:ARP:1,2015-06-01T22:48:00Z,28.4330,-82.6670,-0.273,1111122 
COMPS,ioos:station:USF.COMPS:ARP:1,2015-06-01T22:54:00Z,28.4330,-82.6670,-0.287,1111122 
COMPS,ioos:station:USF.COMPS:ARP:1,2015-06-01T23:00:00Z,28.4330,-82.6670,-0.298,1111122 
COMPS,ioos:station:USF.COMPS:ARP:1,2015-06-01T23:06:00Z,28.4330,-82.6670,-0.31,1111122 
COMPS,ioos:station:USF.COMPS:ARP:1,2015-06-01T23:12:00Z,28.4330,-82.6670,-0.321,1111122 
COMPS,ioos:station:USF.COMPS:ARP:1,2015-06-01T23:18:00Z,28.4330,-82.6670,-0.333,1111122 
COMPS,ioos:station:USF.COMPS:ARP:1,2015-06-01T23:24:00Z,28.4330,-82.6670,-0.343,1111122 
COMPS,ioos:station:USF.COMPS:ARP:1,2015-06-01T23:30:00Z,28.4330,-82.6670,-0.352,1111122 
COMPS,ioos:station:USF.COMPS:ARP:1,2015-06-01T23:36:00Z,28.4330,-82.6670,-0.363,1111122 
COMPS,ioos:station:USF.COMPS:ARP:1,2015-06-01T23:42:00Z,28.4330,-82.6670,-0.374,1111122 
COMPS,ioos:station:USF.COMPS:ARP:1,2015-06-01T23:48:00Z,28.4330,-82.6670,-0.384,1111122 
COMPS,ioos:station:USF.COMPS:ARP:1,2015-06-01T23:54:00Z,28.4330,-82.6670,-0.394,1111122 
COMPS,ioos:station:USF.COMPS:ARP:1,2015-06-02T00:00:00Z,28.4330,-82.6670,-0.402,1111122 
COMPS,ioos:station:USF.COMPS:ARP:1,2015-06-02T00:06:00Z,28.4330,-82.6670,-0.412,1111122 
COMPS,ioos:station:USF.COMPS:ARP:1,2015-06-02T00:12:00Z,28.4330,-82.6670,-0.415,1111122 
COMPS,ioos:station:USF.COMPS:ARP:1,2015-06-02T00:18:00Z,28.4330,-82.6670,-0.422,1111122 
COMPS,ioos:station:USF.COMPS:ARP:1,2015-06-02T00:24:00Z,28.4330,-82.6670,-0.429,1111122 
COMPS,ioos:station:USF.COMPS:ARP:1,2015-06-02T00:30:00Z,28.4330,-82.6670,-0.444,1111122 
COMPS,ioos:station:USF.COMPS:ARP:1,2015-06-02T00:36:00Z,28.4330,-82.6670,-0.453,1111122 
COMPS,ioos:station:USF.COMPS:ARP:1,2015-06-02T00:42:00Z,28.4330,-82.6670,-0.464,1111122 
COMPS,ioos:station:USF.COMPS:ARP:1,2015-06-02T00:48:00Z,28.4330,-82.6670,-0.47,1111122 
COMPS,ioos:station:USF.COMPS:ARP:1,2015-06-02T00:54:00Z,28.4330,-82.6670,-0.475,1111122 
COMPS,ioos:station:USF.COMPS:ARP:1,2015-06-02T01:00:00Z,28.4330,-82.6670,-0.479,1111122 
COMPS,ioos:station:USF.COMPS:ARP:1,2015-06-02T01:06:00Z,28.4330,-82.6670,-0.485,1111122 
COMPS,ioos:station:USF.COMPS:ARP:1,2015-06-02T01:12:00Z,28.4330,-82.6670,-0.49,1111122 
COMPS,ioos:station:USF.COMPS:ARP:1,2015-06-02T01:18:00Z,28.4330,-82.6670,-0.496,1111122 
COMPS,ioos:station:USF.COMPS:ARP:1,2015-06-02T01:24:00Z,28.4330,-82.6670,-0.502,1111122 
COMPS,ioos:station:USF.COMPS:ARP:1,2015-06-02T01:30:00Z,28.4330,-82.6670,-0.507,1111122 
COMPS,ioos:station:USF.COMPS:ARP:1,2015-06-02T01:36:00Z,28.4330,-82.6670,-0.513,1111122 
COMPS,ioos:station:USF.COMPS:ARP:1,2015-06-02T01:42:00Z,28.4330,-82.6670,-0.517,1111122 
COMPS,ioos:station:USF.COMPS:ARP:1,2015-06-02T01:54:00Z,28.4330,-82.6670,-0.523,1111122 
COMPS,ioos:station:USF.COMPS:ARP:1,2015-06-02T02:00:00Z,28.4330,-82.6670,-0.524,1111122 
COMPS,ioos:station:USF.COMPS:ARP:1,2015-06-02T02:06:00Z,28.4330,-82.6670,-0.524,1111122 
COMPS,ioos:station:USF.COMPS:ARP:1,2015-06-02T02:12:00Z,28.4330,-82.6670,-0.523,1111122 
COMPS,ioos:station:USF.COMPS:ARP:1,2015-06-02T02:24:00Z,28.4330,-82.6670,-0.516,1111122 
COMPS,ioos:station:USF.COMPS:ARP:1,2015-06-02T02:30:00Z,28.4330,-82.6670,-0.511,1111122 
COMPS,ioos:station:USF.COMPS:ARP:1,2015-06-02T02:36:00Z,28.4330,-82.6670,-0.506,1111122 
COMPS,ioos:station:USF.COMPS:ARP:1,2015-06-02T02:42:00Z,28.4330,-82.6670,-0.499,1111122 
COMPS,ioos:station:USF.COMPS:ARP:1,2015-06-02T02:48:00Z,28.4330,-82.6670,-0.49,1111122 
COMPS,ioos:station:USF.COMPS:ARP:1,2015-06-02T02:54:00Z,28.4330,-82.6670,-0.481,1111122 
COMPS,ioos:station:USF.COMPS:ARP:1,2015-06-02T03:00:00Z,28.4330,-82.6670,-0.471,1111122 
COMPS,ioos:station:USF.COMPS:ARP:1,2015-06-02T03:06:00Z,28.4330,-82.6670,-0.46,1111122 
COMPS,ioos:station:USF.COMPS:ARP:1,2015-06-02T03:12:00Z,28.4330,-82.6670,-0.446,1111122 
COMPS,ioos:station:USF.COMPS:ARP:1,2015-06-02T03:18:00Z,28.4330,-82.6670,-0.43,1111122 
COMPS,ioos:station:USF.COMPS:ARP:1,2015-06-02T03:24:00Z,28.4330,-82.6670,-0.413,1111122 
COMPS,ioos:station:USF.COMPS:ARP:1,2015-06-02T03:30:00Z,28.4330,-82.6670,-0.395,1111122 
COMPS,ioos:station:USF.COMPS:ARP:1,2015-06-02T03:36:00Z,28.4330,-82.6670,-0.375,1111122 
COMPS,ioos:station:USF.COMPS:ARP:1,2015-06-02T03:42:00Z,28.4330,-82.6670,-0.355,1111122 
COMPS,ioos:station:USF.COMPS:ARP:1,2015-06-02T03:48:00Z,28.4330,-82.6670,-0.333,1111122 
COMPS,ioos:station:USF.COMPS:ARP:1,2015-06-02T03:54:00Z,28.4330,-82.6670,-0.309,1111122 
COMPS,ioos:station:USF.COMPS:ARP:1,2015-06-02T04:00:00Z,28.4330,-82.6670,-0.283,1111122 
COMPS,ioos:station:USF.COMPS:ARP:1,2015-06-02T04:06:00Z,28.4330,-82.6670,-0.255,1111122 